TimeEDT,TemperatureF,Dew PointF,Humidity,Sea Level PressureIn,VisibilityMPH,Wind Direction,Wind SpeedMPH,Gust SpeedMPH,PrecipitationIn,Events,Conditions,WindDirDegrees,DateUTC
12:53 AM,39.0,35.1,86,30.17,10.0,Calm,Calm,-,N/A,,Clear,0,2012-10-12 04:53:00
1:53 AM,37.9,35.1,89,30.17,10.0,Calm,Calm,-,N/A,,Clear,0,2012-10-12 05:53:00
2:53 AM,37.0,34.0,89,30.15,10.0,Calm,Calm,-,N/A,,Clear,0,2012-10-12 06:53:00
4:53 AM,35.1,32.0,89,30.14,10.0,Calm,Calm,-,N/A,,Clear,0,2012-10-12 08:53:00
5:53 AM,34.0,32.0,92,30.14,9.0,Calm,Calm,-,N/A,,Clear,0,2012-10-12 09:53:00
6:53 AM,37.0,35.1,93,30.14,10.0,Calm,Calm,-,N/A,,Clear,0,2012-10-12 10:53:00
7:53 AM,39.9,36.0,86,30.14,10.0,Calm,Calm,-,N/A,,Clear,0,2012-10-12 11:53:00
8:53 AM,51.1,37.9,61,30.18,10.0,Variable,4.6,-,N/A,,Clear,0,2012-10-12 12:53:00
9:53 AM,54.0,39.0,57,30.19,10.0,West,6.9,-,N/A,,Clear,280,2012-10-12 13:53:00
10:53 AM,57.0,37.9,49,30.21,10.0,NW,15.0,-,N/A,,Clear,310,2012-10-12 14:53:00
12:53 PM,55.9,39.0,53,30.26,10.0,NNW,15.0,23.0,N/A,,Mostly Cloudy,330,2012-10-12 16:53:00
1:53 PM,55.0,32.0,42,30.26,10.0,NNW,16.1,21.9,N/A,,Scattered Clouds,330,2012-10-12 17:53:00
2:53 PM,55.0,30.9,40,30.28,10.0,NW,12.7,21.9,N/A,,Scattered Clouds,320,2012-10-12 18:53:00
3:53 PM,54.0,30.0,40,30.29,10.0,NNW,8.1,-,N/A,,Scattered Clouds,330,2012-10-12 19:53:00
4:53 PM,55.0,30.9,40,30.30,10.0,NNW,8.1,-,N/A,,Clear,340,2012-10-12 20:53:00
6:53 PM,48.9,27.0,43,30.33,10.0,NNW,4.6,-,N/A,,Clear,330,2012-10-12 22:53:00
7:53 PM,48.0,26.1,42,30.37,10.0,NNE,4.6,-,N/A,,Clear,20,2012-10-12 23:53:00
8:53 PM,45.0,27.0,49,30.39,10.0,Calm,Calm,-,N/A,,Clear,0,2012-10-13 00:53:00
10:53 PM,35.1,30.9,85,30.45,10.0,Calm,Calm,-,N/A,,Clear,0,2012-10-13 02:53:00
11:53 PM,33.1,30.0,89,30.47,10.0,Calm,Calm,-,N/A,,Clear,0,2012-10-13 03:53:00